Retour au catalogue

STARLINK-33864

ActifCommunicationsVLEO
NORAD 63636·PAYLOAD·🇺🇸 United States

Lancé Apr 25, 2025 depuis Cape Canaveral Space Force Station

Loading…

Prochains Passages (prochaines 24 heures)

TLE

FraisSource: CelesTrak SupGP

Époque: Sep 15, 2026, 03:19 UTC

1 63636C 25083C   26258.13868056  .00020491  00000+0  74202-3 0  2583
2 63636  43.0042  15.6997 0002027 264.9941 179.9827 15.27574449    14

Suivez STARLINK-33864 en temps réel avec AllMySat

Download on the App Store